EW7070 Weather Reports


time (UTC)temp
C
wind
direction
speed
KPH
gust
KPH
rain 1hr
cm
rain 24hr
cm
rain mn
cm
humidity
%
barometer
mb
20260509122758 12 128 0.0 3.2 0.00 0.00 0.00 87 1017.4
20260509122252 11 89 1.6 4.8 0.00 0.00 0.00 89 1017.5
20260509122226 11 77 1.6 6.4 0.00 0.00 0.00 91 1017.4
20260509121224 11 107 1.6 6.4 0.00 0.00 0.00 93 1017.4
20260509120652 10 145 1.6 6.4 0.00 0.00 0.00 97 1017.3
20260509120127 10 110 1.6 6.4 0.00 0.00 0.00 97 1017.4
20260509115559 9 143 0.0 3.2 0.00 0.00 0.00 97 1017.4
20260509115055 9 298 0.0 1.6 0.00 0.00 0.00 97 1017.4
20260509114824 9 298 0.0 1.6 0.00 0.00 0.00 98 1017.4
20260509113531 8 104 0.0 1.6 0.00 0.00 0.00 98 1017.1
20260509113039 8 113 0.0 1.6 0.00 0.00 0.00 98 1017.0
20260509113031 8 113 0.0 1.6 0.00 0.00 0.00 98 1017.1
20260509112002 7 118 0.0 0.0 0.00 0.00 0.00 98 1017.2
20260509111455 7 118 0.0 0.0 0.00 0.00 0.00 97 1017.2
20260509110927 7 118 0.0 0.0 0.00 0.00 0.00 97 1017.3
20260509110424 6 118 0.0 0.0 0.00 0.00 0.00 97 1017.3
20260509105917 6 118 0.0 0.0 0.00 0.00 0.00 97 1017.2
20260509105644 6 118 0.0 0.0 0.00 0.00 0.00 97 1017.0
20260509104846 5 118 0.0 0.0 0.00 0.00 0.00 97 1016.8
20260509104344 5 118 0.0 0.0 0.00 0.00 0.00 96 1016.7
20260509103835 5 118 0.0 0.0 0.00 0.00 0.00 96 1016.8
20260509103333 5 160 0.0 0.0 0.00 0.00 0.00 96 1016.8
20260509102806 5 160 0.0 0.0 0.00 0.00 0.00 96 1016.6
20260509102259 4 160 0.0 0.0 0.00 0.00 0.00 95 1016.6
20260509101759 4 160 0.0 0.0 0.00 0.00 0.00 95 1016.4
20260509101259 4 160 0.0 0.0 0.00 0.00 0.00 95 1016.4
20260509100744 4 160 0.0 0.0 0.00 0.00 0.00 95 1016.5
20260509100223 4 160 0.0 0.0 0.00 0.00 0.00 95 1016.4
20260509095723 4 160 0.0 0.0 0.00 0.00 0.00 95 1016.3
20260509095218 5 160 0.0 0.0 0.00 0.00 0.00 95 1016.3
20260509094939 5 50 0.0 0.0 0.00 0.00 0.00 95 1016.2
20260509094209 5 177 0.0 0.0 0.00 0.00 0.00 95 1016.1
20260509093656 5 177 0.0 0.0 0.00 0.00 0.00 96 1016.0
20260509093154 5 155 0.0 0.0 0.00 0.00 0.00 96 1016.0
20260509092651 5 155 0.0 0.0 0.00 0.00 0.00 96 1015.9
20260509092150 5 249 0.0 0.0 0.00 0.00 0.00 96 1015.9
20260509091648 5 249 0.0 0.0 0.00 0.00 0.00 95 1016.0
20260509091143 5 241 0.0 0.0 0.00 0.00 0.00 95 1015.8
20260509090643 5 241 0.0 0.0 0.00 0.00 0.00 95 1015.6
20260509090113 5 230 0.0 0.0 0.00 0.00 0.00 95 1015.5
20260509085827 5 230 0.0 0.0 0.00 0.00 0.00 95 1015.3
20260509085044 5 230 0.0 0.0 0.00 0.00 0.00 95 1015.2
20260509084516 5 230 0.0 0.0 0.00 0.00 0.00 95 1015.2
20260509084009 5 187 0.0 0.0 0.00 0.00 0.00 95 1015.1
20260509083743 5 187 0.0 0.0 0.00 0.00 0.00 95 1015.1
20260509082943 5 187 0.0 0.0 0.00 0.00 0.00 95 1015.1
20260509082432 5 196 0.0 0.0 0.00 0.00 0.00 95 1015.1
20260509081922 5 266 0.0 0.0 0.00 0.00 0.00 95 1015.1
20260509081415 5 266 0.0 0.0 0.00 0.00 0.00 95 1015.1
20260509080905 5 266 0.0 0.0 0.00 0.00 0.00 95 1015.1
20260509080340 6 266 0.0 0.0 0.00 0.00 0.00 95 1015.2
20260509075840 6 266 0.0 0.0 0.00 0.00 0.00 95 1015.1
20260509075336 5 266 0.0 0.0 0.00 0.00 0.00 95 1015.1
20260509074825 5 266 0.0 0.0 0.00 0.00 0.00 94 1015.1
20260509074311 5 289 0.0 0.0 0.00 0.00 0.00 94 1014.9
20260509074038 6 289 0.0 0.0 0.00 0.00 0.00 94 1014.9
20260509073524 6 289 0.0 0.0 0.00 0.00 0.00 94 1014.9
20260509072739 6 289 0.0 0.0 0.00 0.00 0.00 94 1015.0
20260509072235 6 258 0.0 0.0 0.00 0.00 0.00 94 1015.1
20260509071735 6 258 0.0 0.0 0.00 0.00 0.00 94 1015.1
20260509071237 6 281 0.0 0.0 0.00 0.00 0.00 93 1015.0
20260509070723 6 246 0.0 0.0 0.00 0.00 0.00 93 1015.1
20260509070220 6 246 0.0 0.0 0.00 0.00 0.00 93 1015.1
20260509065938 6 246 0.0 0.0 0.00 0.00 0.00 93 1015.1
20260509065155 6 246 0.0 0.0 0.00 0.00 0.00 93 1015.1
20260509064627 6 246 0.0 0.0 0.00 0.00 0.00 93 1015.1
20260509064124 6 246 0.0 0.0 0.00 0.00 0.00 93 1015.0
20260509063624 6 246 0.0 0.0 0.00 0.00 0.00 93 1015.0
20260509063125 6 246 0.0 0.0 0.00 0.00 0.00 93 1014.9
20260509062626 6 246 0.0 0.0 0.00 0.00 0.00 93 1015.0
20260509062057 6 246 0.0 0.0 0.00 0.03 0.00 93 1014.9
20260509061533 6 246 0.0 0.0 0.00 0.05 0.00 93 1014.5
20260509061027 7 225 0.0 0.0 0.00 0.08 0.00 93 1014.4
20260509060456 7 245 0.0 0.0 0.00 0.10 0.00 93 1014.2
20260509055942 7 245 0.0 0.0 0.00 0.15 0.00 93 1014.2
20260509055418 7 187 0.0 0.0 0.00 0.18 0.00 93 1014.2
20260509054915 7 275 0.0 0.0 0.00 0.20 0.00 93 1014.2
20260509054414 7 275 0.0 0.0 0.00 0.25 0.00 93 1014.2
20260509053903 7 275 0.0 0.0 0.00 0.28 0.00 92 1014.0
20260509053401 7 275 0.0 0.0 0.00 0.30 0.00 91 1013.9
20260509052850 7 217 0.0 0.0 0.00 0.41 0.00 91 1013.8
20260509052349 7 177 0.0 0.0 0.00 0.46 0.00 91 1014.0
20260509051849 7 182 0.0 0.0 0.00 0.46 0.00 91 1013.9
20260509051346 7 182 0.0 0.0 0.00 0.46 0.00 92 1013.6
20260509051107 7 182 0.0 0.0 0.00 0.46 0.00 91 1013.3
20260509050543 7 92 0.0 0.0 0.00 0.46 0.00 91 1013.2
20260509045810 7 92 0.0 0.0 0.00 0.46 0.00 91 1013.2
20260509045323 7 92 0.0 0.0 0.00 0.46 0.00 90 1013.3
20260509045310 7 92 0.0 0.0 0.00 0.46 0.00 90 1013.4
20260509044255 8 92 0.0 0.0 0.00 0.46 0.00 90 1013.3
20260509043744 8 262 0.0 0.0 0.00 0.46 0.00 89 1013.4
20260509043231 8 272 0.0 0.0 0.00 0.46 0.00 89 1013.6
20260509042731 8 248 0.0 0.0 0.00 0.46 0.00 89 1013.8
20260509042230 8 258 0.0 0.0 0.00 0.74 0.00 89 1013.7
20260509042223 8 258 0.0 0.0 0.00 0.51 0.00 89 1013.6
20260509041223 8 253 0.0 0.0 0.00 0.74 0.00 89 1013.6
20260509040716 8 287 0.0 0.0 0.00 0.74 0.00 89 1013.4
20260509040446 8 287 0.0 0.0 0.00 0.74 0.00 88 1013.3
20260509040329 8 287 0.0 0.0 0.00 0.74 0.00 88 1013.2
20260509035946 8 287 0.0 0.0 0.00 0.74 0.00 88 1013.2
20260509035212 8 287 0.0 0.0 0.00 0.74 0.00 88 1013.1
20260509034714 9 77 0.0 0.0 0.00 0.74 0.00 87 1012.9
20260509034210 9 77 0.0 0.0 0.00 0.74 0.00 86 1013.0
20260509033708 9 272 0.0 0.0 0.00 0.74 0.00 86 1013.1
20260509033147 9 272 0.0 0.0 0.00 0.74 0.00 86 1013.0
20260509032645 10 271 0.0 0.0 0.00 0.74 0.00 85 1012.8
20260509032134 10 271 0.0 0.0 0.00 0.76 0.00 85 1012.8
20260509031634 10 271 0.0 0.0 0.00 0.76 0.00 85 1012.7
20260509031120 10 271 0.0 0.0 0.00 0.76 0.00 85 1012.8
20260509030559 10 271 0.0 0.0 0.00 0.76 0.00 83 1012.7
20260509030049 10 271 0.0 0.0 0.00 0.76 0.00 83 1012.5
20260509025758 10 271 0.0 0.0 0.00 0.76 0.76 83 1012.7
20260509024959 10 271 0.0 0.0 0.00 0.76 0.76 82 1012.7
20260509024437 11 271 0.0 0.0 0.00 0.76 0.76 82 1012.5
20260509023938 11 257 0.0 0.0 0.00 0.76 0.76 82 1012.5
20260509023423 11 246 0.0 0.0 0.00 0.76 0.76 82 1012.3
20260509022913 11 230 0.0 0.0 0.00 0.76 0.76 81 1012.3
20260509022411 11 212 0.0 0.0 0.00 0.76 0.76 80 1011.9
20260509021913 11 212 0.0 0.0 0.00 0.76 0.76 79 1011.7
20260509021409 12 242 0.0 0.0 0.00 0.79 0.76 78 1011.8
20260509020843 12 242 0.0 0.0 0.00 0.81 0.76 78 1011.8
20260509020339 12 242 0.0 0.0 0.00 0.84 0.76 78 1011.7
20260509015836 12 242 0.0 0.0 0.00 0.94 0.76 77 1011.5
20260509015328 12 242 0.0 0.0 0.00 0.97 0.76 77 1011.7
20260509014823 12 242 0.0 0.0 0.00 0.97 0.76 77 1011.6
20260509014319 12 218 0.0 0.0 0.00 0.97 0.76 76 1011.5
20260509013813 12 256 0.0 0.0 0.00 0.97 0.76 75 1011.1
20260509013246 12 289 0.0 0.0 0.00 0.97 0.76 76 1010.8
20260509012721 13 296 0.0 0.0 0.00 0.97 0.76 74 1010.9
20260509012153 13 296 0.0 0.0 0.00 0.97 0.76 73 1010.7
20260509011625 14 296 0.0 0.0 0.00 0.97 0.76 73 1010.8
20260509011121 15 300 0.0 0.0 0.00 0.97 0.76 72 1010.9
20260509010617 15 263 0.0 0.0 0.00 0.97 0.76 70 1011.0
20260509010107 15 263 0.0 0.0 0.00 0.97 0.76 68 1010.8
20260509005556 16 268 0.0 0.0 0.00 0.97 0.76 66 1010.8
20260509005056 16 191 0.0 0.0 0.00 0.97 0.76 65 1010.7
20260509004557 16 214 0.0 4.8 0.00 0.97 0.76 64 1010.7
20260509004055 16 228 0.0 4.8 0.00 0.97 0.76 62 1010.6
20260509003529 16 230 1.6 4.8 0.00 0.97 0.76 60 1010.7
20260509003024 16 204 3.2 6.4 0.00 0.97 0.76 59 1010.7
20260509002517 16 201 3.2 11.3 0.00 0.97 0.76 59 1010.6
20260509001953 16 287 4.8 11.3 0.00 0.97 0.76 58 1010.5
20260509001728 16 272 4.8 14.5 0.00 0.97 0.76 58 1010.6
20260509001423 16 285 3.2 12.9 0.00 0.97 0.76 58 1010.5
20260509000625 16 249 3.2 11.3 0.00 0.97 0.76 59 1010.5
20260508235907 16 258 3.2 8.0 0.00 0.97 0.76 58 1010.4
20260508235622 16 237 3.2 9.7 0.00 0.97 0.76 59 1010.4
20260508234857 16 217 4.8 14.5 0.00 0.97 0.76 59 1010.4
20260508234332 16 262 4.8 14.5 0.00 0.97 0.76 59 1010.3
20260508233826 16 265 4.8 11.3 0.00 0.97 0.76 59 1010.3
20260508233328 16 308 4.8 11.3 0.00 0.97 0.76 60 1010.3
20260508232804 16 274 4.8 12.9 0.00 0.97 0.76 59 1010.2
20260508232259 15 251 3.2 14.5 0.00 0.97 0.76 61 1010.1
20260508231752 15 349 3.2 9.7 0.00 0.97 0.76 63 1010.1
20260508231225 15 302 3.2 8.0 0.00 0.97 0.76 66 1010.0
20260508230722 13 274 1.6 9.7 0.00 0.97 0.76 71 1009.6
20260508230714 14 279 3.2 9.7 0.00 0.97 0.76 70 1009.8
20260508225648 13 263 0.0 0.0 0.00 0.97 0.76 78 1009.3
20260508225122 13 291 0.0 0.0 0.00 0.97 0.76 83 1009.4
20260508224617 13 291 0.0 0.0 0.00 0.97 0.76 82 1009.5
20260508224348 13 301 0.0 0.0 0.00 0.97 0.76 81 1009.3
20260508223600 13 301 0.0 0.0 0.00 0.97 0.76 81 1009.3
20260508223102 13 301 0.0 0.0 0.00 0.97 0.76 80 1009.3
20260508222541 13 301 0.0 0.0 0.00 0.97 0.76 80 1009.0
20260508222013 13 301 0.0 0.0 0.00 0.97 0.76 78 1009.0
20260508221508 13 301 0.0 0.0 0.00 0.97 0.76 76 1008.8
20260508221212 13 301 0.0 0.0 0.00 0.97 0.76 77 1008.8
20260508220435 14 301 0.0 1.6 0.00 0.97 0.76 75 1008.7
20260508215910 14 280 0.0 4.8 0.00 0.97 0.76 74 1008.6
20260508215344 14 280 1.6 4.8 0.00 0.97 0.76 71 1008.5
20260508215122 15 295 0.0 4.8 0.00 0.97 0.76 70 1008.5
20260508214844 14 283 1.6 4.8 0.00 0.97 0.76 71 1008.5
20260508213816 15 261 0.0 3.2 0.00 0.97 0.76 70 1008.3
20260508213511 15 327 0.0 3.2 0.00 0.97 0.76 66 1008.0
20260508212741 16 305 1.6 4.8 0.00 0.97 0.76 68 1008.0
20260508212232 16 262 1.6 4.8 0.00 0.97 0.76 64 1007.9
20260508211734 17 299 1.6 4.8 0.00 0.97 0.76 62 1007.7
20260508211206 17 283 1.6 4.8 0.00 0.97 0.76 60 1007.7
20260508210928 18 294 0.0 4.8 0.00 0.97 0.76 55 1007.8
20260508210155 18 353 0.0 0.0 0.00 0.97 0.76 54 1007.8
20260508205632 18 353 1.6 8.0 0.00 0.97 0.76 51 1007.8
20260508205104 18 353 1.6 16.1 0.00 0.97 0.76 49 1007.7
20260508204554 18 187 3.2 16.1 0.00 0.97 0.76 50 1007.6
20260508204054 18 285 4.8 12.9 0.00 0.97 0.76 48 1007.5
20260508203552 18 235 6.4 16.1 0.00 0.97 0.76 48 1007.3
20260508203040 19 273 8.0 17.7 0.00 0.97 0.76 47 1007.3
20260508202744 19 287 8.0 16.1 0.00 0.97 0.76 49 1007.2
20260508201946 19 231 6.4 20.9 0.00 0.97 0.76 49 1007.1
20260508201441 20 331 4.8 17.7 0.00 0.97 0.76 48 1007.1
20260508200922 20 337 4.8 12.9 0.00 0.97 0.76 52 1007.2
20260508200424 20 325 3.2 12.9 0.00 0.97 0.76 50 1007.3
20260508195922 20 337 3.2 11.3 0.00 0.97 0.76 50 1007.2
20260508195420 21 340 6.4 14.5 0.00 0.97 0.76 48 1007.2
20260508194920 21 332 6.4 17.7 0.00 0.97 0.76 49 1007.2
20260508194353 21 322 8.0 17.7 0.00 0.97 0.76 49 1007.2
20260508193846 21 345 8.0 16.1 0.00 0.97 0.76 48 1007.2
20260508193615 21 318 8.0 16.1 0.00 0.97 0.76 50 1007.2
20260508192815 21 350 6.4 16.1 0.00 0.97 0.76 48 1007.3
20260508192310 21 4 8.0 14.5 0.00 0.97 0.76 49 1007.3
20260508191744 21 13 6.4 22.5 0.00 0.97 0.76 48 1007.3
20260508191241 21 334 8.0 22.5 0.00 0.97 0.76 48 1007.4
20260508190735 21 4 8.0 22.5 0.00 0.97 0.76 47 1007.3
20260508190208 21 324 8.0 22.5 0.00 0.97 0.76 47 1007.1
20260508185924 21 327 8.0 20.9 0.00 0.97 0.76 47 1007.0
20260508185423 21 332 9.7 22.5 0.00 0.97 0.76 47 1007.0
20260508184654 21 356 9.7 22.5 0.00 0.97 0.76 47 1006.9
20260508184410 21 11 11.3 32.2 0.00 0.97 0.76 47 1006.9
20260508184126 21 312 11.3 20.9 0.00 0.97 0.76 47 1006.9
20260508183055 21 357 12.9 22.5 0.00 0.97 0.76 46 1006.9
20260508182544 21 337 14.5 25.7 0.00 0.97 0.76 45 1006.8
20260508182044 21 312 12.9 27.4 0.00 0.97 0.76 45 1006.9
20260508181545 22 275 9.7 22.5 0.00 0.97 0.76 45 1006.8
20260508181038 22 330 11.3 29.0 0.00 0.97 0.76 46 1006.7
20260508180534 22 343 9.7 29.0 0.00 0.97 0.76 45 1006.6
20260508180032 22 16 8.0 22.5 0.00 0.97 0.76 45 1006.6
20260508175529 22 315 6.4 20.9 0.00 0.97 0.76 44 1006.6
20260508175029 22 290 8.0 20.9 0.00 0.97 0.76 45 1006.6
20260508174502 22 297 9.7 20.9 0.00 0.97 0.76 43 1006.7
20260508173955 22 297 11.3 25.7 0.00 0.97 0.76 44 1006.8
20260508173441 22 291 9.7 25.7 0.00 0.97 0.76 44 1006.8
20260508172941 22 272 9.7 25.7 0.00 0.97 0.76 46 1006.7
20260508172441 22 338 11.3 22.5 0.00 0.97 0.76 48 1006.6
20260508171914 22 1 11.3 24.1 0.00 0.97 0.76 48 1006.6
20260508171415 22 331 11.3 24.1 0.00 0.97 0.76 45 1006.6
20260508170850 22 321 11.3 24.1 0.00 0.97 0.76 47 1006.7
20260508170349 22 338 12.9 32.2 0.00 0.97 0.76 46 1006.7
20260508165845 22 348 11.3 32.2 0.00 0.97 0.76 45 1006.7
20260508165318 22 345 8.0 27.4 0.00 0.97 0.76 46 1006.8
20260508165020 22 333 8.0 20.9 0.00 0.97 0.76 49 1006.7
20260508164223 21 282 9.7 24.1 0.00 0.97 0.76 49 1006.7
20260508163656 21 348 9.7 24.1 0.00 0.97 0.76 48 1006.7
20260508163134 21 302 9.7 25.7 0.00 0.97 0.76 49 1006.8
20260508162621 21 322 11.3 25.7 0.00 0.97 0.76 48 1006.9
20260508162114 21 353 12.9 30.6 0.00 0.97 0.76 49 1006.8
20260508161550 21 348 11.3 30.6 0.00 0.97 0.76 49 1006.9
20260508161048 21 318 8.0 22.5 0.00 0.97 0.76 48 1006.8
20260508160550 21 309 9.7 24.1 0.00 0.97 0.76 48 1007.1
20260508160047 21 305 9.7 29.0 0.00 0.97 0.76 48 1007.1
20260508155548 21 285 9.7 29.0 0.00 0.97 0.76 48 1007.1
20260508155036 21 227 9.7 22.5 0.00 0.97 0.76 47 1007.3
20260508154534 20 330 8.0 22.5 0.00 0.97 0.76 47 1007.4
20260508154027 20 301 8.0 20.9 0.00 0.97 0.76 48 1007.5
20260508153524 20 283 9.7 27.4 0.00 0.97 0.76 50 1007.6
20260508152956 20 319 11.3 27.4 0.00 0.97 0.76 49 1007.7
20260508152446 20 328 8.0 27.4 0.00 0.97 0.76 49 1007.9
20260508151922 20 289 8.0 19.3 0.00 0.97 0.76 52 1007.8
20260508151355 20 337 9.7 20.9 0.00 0.97 0.76 55 1007.8
20260508151057 20 8 11.3 25.7 0.00 0.97 0.76 54 1007.8
20260508150258 20 294 11.3 25.7 0.00 0.97 0.76 52 1008.0
20260508145756 20 353 11.3 24.1 0.00 0.97 0.76 54 1008.1
20260508145225 20 331 11.3 24.1 0.00 0.97 0.76 54 1008.2
20260508144719 20 7 11.3 25.7 0.00 0.97 0.76 54 1008.4
20260508144214 20 320 9.7 25.7 0.00 0.97 0.76 52 1008.3
20260508143710 20 333 8.0 20.9 0.00 0.97 0.76 54 1008.4
20260508143204 19 354 8.0 19.3 0.00 0.97 0.76 56 1008.5
20260508142701 19 352 9.7 20.9 0.00 0.97 0.76 56 1008.7
20260508142150 19 348 11.3 35.4 0.00 0.97 0.76 55 1008.7
20260508141649 19 340 9.7 35.4 0.00 0.97 0.76 57 1008.9
20260508141415 18 8 8.0 20.9 0.00 0.97 0.76 57 1009.0
20260508140913 18 337 11.3 30.6 0.00 0.97 0.76 56 1008.8
20260508140112 18 328 12.9 30.6 0.00 0.97 0.76 57 1008.8
20260508135544 18 139 11.3 38.6 0.00 0.97 0.76 56 1008.8
20260508135251 18 44 8.0 25.7 0.00 0.97 0.76 58 1008.7
20260508134452 18 2 8.0 14.5 0.00 0.97 0.76 62 1008.8
20260508133924 18 288 9.7 25.7 0.00 0.97 0.76 62 1008.9
20260508133423 18 7 9.7 24.1 0.00 0.97 0.76 62 1008.8
20260508132918 18 300 9.7 22.5 0.00 0.97 0.76 60 1008.9
20260508132410 18 331 9.7 25.7 0.00 0.97 0.76 65 1008.7
20260508131910 18 23 11.3 25.7 0.00 0.97 0.76 63 1008.9
20260508131410 18 312 9.7 17.7 0.00 0.97 0.76 63 1008.8
20260508130910 18 339 9.7 25.7 0.00 0.97 0.76 65 1009.0
20260508130345 18 323 8.0 22.5 0.00 0.97 0.76 67 1008.9
20260508125818 18 216 8.0 22.5 0.00 0.97 0.76 69 1008.8
20260508125519 18 281 8.0 22.5 0.00 0.97 0.76 67 1008.9
20260508124723 17 278 6.4 25.7 0.00 0.97 0.76 68 1008.8
20260508124218 17 141 8.0 25.7 0.00 0.97 0.76 66 1008.7
20260508123715 17 322 9.7 24.1 0.00 0.97 0.76 70 1008.6
20260508123440 17 343 9.7 17.7 0.00 0.97 0.76 69 1008.5